User: anonymous   Login
Location: Newark
(51.0500°N, 12.4500°E)
Time: 09:44:17
(UTC+00:00)
Language:

A-11 Canister half - Orbit

View from above orbital plane
View from above orbital plane
View from above satellite
View from above satellite

Ground track
Ground track

The orbit data is extracted from the following two-line orbital elements,

1    51U 60009C   20049.30276751 -.00000107 +00000-0 -21386-3 0  9990
2    51 047.2150 359.1327 0103980 166.5943 193.7642 12.18270876649443
Epoch (UTC): 18 February 2020 07:15:59
Eccentricity: 0.0103980
inclination: 47.2150°
perigee height: 1517 km
apogee height: 1683 km
right ascension of ascending node: 359.1327°
argument of perigee: 166.5943°
revolutions per day: 12.18270876
mean anomaly at epoch: 193.7642°
orbit number at epoch: 64944

The dashed part of the orbit path shows where the satellite is in the earth's shadow,  

DLR